TimeEST,TemperatureF,Dew PointF,Humidity,Sea Level PressureIn,VisibilityMPH,Wind Direction,Wind SpeedMPH,Gust SpeedMPH,PrecipitationIn,Events,Conditions,WindDirDegrees,DateUTC
12:15 AM,34.7,33.8,97,30.18,10.0,NW,10.4,-,N/A,Rain,Light Rain,310,2013-11-22 05:15:00
12:35 AM,34.2,33.1,96,30.18,7.0,NW,9.2,17.3,N/A,Rain,Light Rain,310,2013-11-22 05:35:00
12:55 AM,33.8,32.4,94,30.17,7.0,WNW,9.2,-,N/A,Snow,Light Snow,300,2013-11-22 05:55:00
1:14 AM,33.1,32.0,96,30.18,7.0,WNW,9.2,-,N/A,Snow,Light Snow,300,2013-11-22 06:14:00
1:35 AM,32.5,32.0,98,30.18,3.0,WNW,11.5,16.1,N/A,Snow,Light Snow,300,2013-11-22 06:35:00
1:55 AM,32.0,31.8,99,30.19,2.5,NW,8.1,-,N/A,Snow,Light Snow,310,2013-11-22 06:55:00
2:15 AM,32.0,31.1,96,30.19,5.0,NW,12.7,-,N/A,Snow,Light Snow,310,2013-11-22 07:15:00
2:35 AM,32.0,30.7,95,30.20,7.0,NW,12.7,25.3,N/A,Snow,Light Snow,310,2013-11-22 07:35:00
2:54 AM,31.8,30.2,94,30.20,5.0,NW,10.4,16.1,N/A,Snow,Light Snow,320,2013-11-22 07:54:00
3:15 AM,31.5,30.2,95,30.21,3.0,NW,11.5,17.3,N/A,Snow,Light Snow,310,2013-11-22 08:15:00
3:35 AM,30.7,29.1,94,30.21,4.0,NW,11.5,27.6,N/A,Snow,Light Snow,320,2013-11-22 08:35:00
3:54 AM,30.2,28.4,93,30.21,5.0,NW,15.0,24.2,N/A,Snow,Light Snow,310,2013-11-22 08:54:00
4:15 AM,30.0,28.0,92,30.21,4.0,NW,15.0,19.6,N/A,Snow,Light Snow,320,2013-11-22 09:15:00
4:35 AM,29.7,27.7,92,30.21,5.0,NW,13.8,23.0,N/A,Snow,Light Snow,320,2013-11-22 09:35:00
4:55 AM,29.1,27.1,92,30.22,1.8,NW,13.8,23.0,N/A,Snow,Light Snow,320,2013-11-22 09:55:00
5:15 AM,28.9,26.6,91,30.22,2.5,NW,12.7,24.2,N/A,Snow,Light Snow,320,2013-11-22 10:15:00
5:35 AM,28.4,26.6,93,30.23,3.0,NNW,11.5,19.6,N/A,Snow,Light Snow,330,2013-11-22 10:35:00
5:55 AM,28.4,26.6,93,30.23,2.5,NNW,12.7,19.6,N/A,Snow,Light Snow,330,2013-11-22 10:55:00
6:14 AM,28.0,26.6,94,30.23,2.0,NW,10.4,17.3,N/A,Snow,Light Snow,320,2013-11-22 11:14:00
6:35 AM,28.0,27.0,96,30.24,1.0,NNW,9.2,-,N/A,Snow,Snow,340,2013-11-22 11:35:00
6:55 AM,28.0,26.8,95,30.24,1.5,North,11.5,16.1,N/A,Snow,Light Snow,350,2013-11-22 11:55:00
7:14 AM,27.5,26.1,94,30.24,3.0,North,11.5,18.4,N/A,Snow,Light Snow,350,2013-11-22 12:14:00
7:35 AM,27.5,24.8,90,30.26,7.0,NNW,9.2,-,N/A,Snow,Light Snow,330,2013-11-22 12:35:00
7:55 AM,27.1,24.8,91,30.26,5.0,NNW,13.8,19.6,N/A,Snow,Light Snow,340,2013-11-22 12:55:00
8:14 AM,27.0,25.2,93,30.26,3.0,NNW,9.2,-,N/A,Snow,Light Snow,340,2013-11-22 13:14:00
8:35 AM,27.0,25.5,94,30.26,2.0,North,8.1,-,N/A,Snow,Light Snow,350,2013-11-22 13:35:00
8:55 AM,27.1,25.3,93,30.27,4.0,North,10.4,16.1,N/A,Snow,Light Snow,350,2013-11-22 13:55:00
9:14 AM,27.1,24.4,90,30.27,10.0,NNW,13.8,19.6,N/A,,Overcast,340,2013-11-22 14:14:00
9:18 AM,27.0,24.3,90,30.27,10.0,North,11.5,19.6,N/A,,Overcast,350,2013-11-22 14:18:00